| time (UTC) | temp F | wind direction | speed knots | gust knots | rain 1hr in | rain 24hr in | rain mn in | humidity % | barometer mb |
| 20260506091523 | 42 | 351 | 3.5 | 9.6 | 0.00 | 0.01 | 0.00 | 76 | 1007.5 |
| 20260506090517 | 42 | 359 | 5.2 | 12.2 | 0.00 | 0.01 | 0.00 | 75 | 1007.5 |
| 20260506085516 | 42 | 1 | 2.6 | 8.7 | 0.00 | 0.01 | 0.00 | 75 | 1007.5 |
| 20260506084515 | 43 | 0 | 4.3 | 11.3 | 0.00 | 0.01 | 0.00 | 73 | 1007.6 |
| 20260506083515 | 43 | 353 | 3.5 | 12.2 | 0.00 | 0.01 | 0.00 | 71 | 1007.5 |
| 20260506082537 | 44 | 358 | 3.5 | 11.3 | 0.00 | 0.01 | 0.00 | 69 | 1007.7 |
| 20260506081516 | 44 | 0 | 1.7 | 8.7 | 0.00 | 0.01 | 0.00 | 69 | 1007.6 |
| 20260506080536 | 45 | 358 | 2.6 | 9.6 | 0.00 | 0.01 | 0.00 | 68 | 1007.5 |
| 20260506072516 | 44 | 351 | 0.9 | 7.8 | 0.00 | 0.01 | 0.00 | 75 | 1007.2 |
| 20260506071530 | 44 | 359 | 0.9 | 3.5 | 0.00 | 0.01 | 0.00 | 76 | 1007.2 |
| 20260506070516 | 44 | 348 | 0.9 | 1.7 | 0.00 | 0.01 | 0.00 | 76 | 1007.3 |
| 20260506062517 | 44 | 356 | 0.9 | 3.5 | 0.00 | 0.01 | 0.00 | 83 | 1006.9 |
| 20260506061516 | 45 | 346 | 0.9 | 1.7 | 0.00 | 0.01 | 0.00 | 82 | 1006.8 |
| 20260506060516 | 49 | 349 | 1.7 | 5.2 | 0.00 | 0.01 | 0.00 | 61 | 1006.6 |
| 20260506050516 | 50 | 0.0 | 0.0 | 0.00 | 0.01 | 0.00 | 51 | 1006.4 | |
| 20260506044515 | 51 | 292 | 0.0 | 1.7 | 0.00 | 0.01 | 0.00 | 49 | 1006.5 |
| 20260506043525 | 51 | 280 | 0.9 | 2.6 | 0.00 | 0.01 | 0.00 | 49 | 1006.5 |
| 20260506042556 | 51 | 299 | 0.0 | 1.7 | 0.00 | 0.01 | 0.00 | 49 | 1006.5 |
| 20260506041516 | 51 | 0.0 | 0.0 | 0.00 | 0.01 | 0.00 | 50 | 1006.8 | |
| 20260506040522 | 51 | 295 | 0.0 | 2.6 | 0.00 | 0.01 | 0.00 | 51 | 1006.6 |
| 20260506035537 | 51 | 302 | 0.0 | 2.6 | 0.00 | 0.01 | 0.01 | 51 | 1006.6 |
| 20260506034517 | 52 | 282 | 0.0 | 1.7 | 0.00 | 0.01 | 0.01 | 51 | 1006.7 |
| 20260506033516 | 52 | 296 | 0.0 | 1.7 | 0.00 | 0.01 | 0.01 | 54 | 1006.7 |
| 20260506032516 | 52 | 0.0 | 0.0 | 0.00 | 0.01 | 0.01 | 51 | 1006.6 | |
| 20260506031534 | 52 | 277 | 0.9 | 3.5 | 0.00 | 0.01 | 0.01 | 48 | 1006.8 |
| 20260506030557 | 52 | 294 | 0.9 | 5.2 | 0.00 | 0.01 | 0.01 | 50 | 1006.8 |
| 20260506025521 | 52 | 312 | 0.0 | 2.6 | 0.00 | 0.01 | 0.01 | 54 | 1006.8 |
| 20260506024529 | 52 | 291 | 0.0 | 1.7 | 0.00 | 0.01 | 0.01 | 57 | 1007.0 |
| 20260506023516 | 53 | 288 | 0.0 | 2.6 | 0.00 | 0.01 | 0.01 | 57 | 1006.8 |
| 20260506022515 | 53 | 278 | 0.9 | 2.6 | 0.00 | 0.01 | 0.01 | 57 | 1006.5 |
| 20260506021515 | 53 | 272 | 0.9 | 2.6 | 0.00 | 0.01 | 0.01 | 62 | 1006.6 |
| 20260506020523 | 53 | 306 | 0.0 | 0.9 | 0.00 | 0.01 | 0.01 | 68 | 1006.4 |
| 20260506015516 | 52 | 297 | 0.0 | 0.9 | 0.00 | 0.01 | 0.01 | 73 | 1006.4 |
| 20260506014516 | 53 | 0.0 | 0.0 | 0.00 | 0.01 | 0.01 | 73 | 1006.5 | |
| 20260506013531 | 53 | 0.0 | 0.0 | 0.00 | 0.01 | 0.01 | 73 | 1006.5 | |
| 20260506012517 | 53 | 291 | 0.0 | 0.9 | 0.00 | 0.01 | 0.01 | 74 | 1006.3 |
| 20260506011535 | 53 | 282 | 0.0 | 1.7 | 0.00 | 0.01 | 0.01 | 73 | 1006.3 |
| 20260506010516 | 53 | 220 | 0.0 | 1.7 | 0.00 | 0.01 | 0.01 | 74 | 1006.3 |
| 20260506005516 | 53 | 246 | 0.0 | 2.6 | 0.00 | 0.01 | 0.01 | 73 | 1006.2 |
| 20260506004526 | 53 | 0.0 | 0.0 | 0.00 | 0.01 | 0.01 | 73 | 1006.2 | |
| 20260506003516 | 53 | 290 | 0.0 | 1.7 | 0.00 | 0.01 | 0.01 | 73 | 1005.9 |
| 20260506002528 | 53 | 0.0 | 0.0 | 0.00 | 0.01 | 0.01 | 73 | 1006.0 | |
| 20260506001516 | 54 | 238 | 0.0 | 0.9 | 0.00 | 0.01 | 0.01 | 72 | 1005.9 |
| 20260506000516 | 54 | 246 | 0.0 | 3.5 | 0.00 | 0.01 | 0.01 | 72 | 1005.8 |
| 20260505235515 | 54 | 231 | 0.9 | 2.6 | 0.00 | 0.01 | 0.01 | 71 | 1005.7 |
| 20260505234517 | 54 | 251 | 0.0 | 1.7 | 0.00 | 0.01 | 0.01 | 71 | 1005.5 |
| 20260505233536 | 54 | 273 | 0.0 | 1.7 | 0.00 | 0.01 | 0.01 | 71 | 1005.5 |
| 20260505232516 | 54 | 251 | 0.9 | 1.7 | 0.00 | 0.01 | 0.01 | 72 | 1005.5 |
| 20260505231516 | 54 | 242 | 0.9 | 3.5 | 0.00 | 0.01 | 0.01 | 71 | 1005.6 |
| 20260505230529 | 55 | 250 | 0.0 | 0.9 | 0.00 | 0.01 | 0.01 | 71 | 1005.7 |
| 20260505225537 | 54 | 243 | 0.9 | 3.5 | 0.00 | 0.01 | 0.01 | 71 | 1005.7 |
| 20260505224517 | 54 | 267 | 0.0 | 2.6 | 0.00 | 0.01 | 0.01 | 72 | 1005.7 |
| 20260505223519 | 55 | 281 | 0.0 | 1.7 | 0.00 | 0.01 | 0.01 | 72 | 1005.8 |
| 20260505222536 | 54 | 269 | 0.0 | 1.7 | 0.00 | 0.01 | 0.01 | 74 | 1005.9 |
| 20260505221524 | 54 | 247 | 0.9 | 2.6 | 0.00 | 0.01 | 0.01 | 75 | 1005.8 |
| 20260505220537 | 54 | 226 | 0.9 | 2.6 | 0.00 | 0.01 | 0.01 | 76 | 1005.7 |
| 20260505215517 | 53 | 240 | 0.9 | 3.5 | 0.00 | 0.01 | 0.01 | 76 | 1005.9 |
| 20260505214544 | 53 | 232 | 0.0 | 2.6 | 0.00 | 0.01 | 0.01 | 77 | 1005.8 |
| 20260505213516 | 53 | 251 | 0.9 | 3.5 | 0.00 | 0.01 | 0.01 | 77 | 1006.0 |
| 20260505212516 | 53 | 233 | 0.9 | 3.5 | 0.00 | 0.01 | 0.01 | 77 | 1005.7 |
| 20260505211517 | 53 | 226 | 1.7 | 7.0 | 0.00 | 0.01 | 0.01 | 77 | 1005.8 |
| 20260505210517 | 53 | 277 | 0.0 | 1.7 | 0.00 | 0.01 | 0.01 | 77 | 1006.0 |
| 20260505205516 | 53 | 211 | 0.9 | 3.5 | 0.00 | 0.01 | 0.01 | 76 | 1005.9 |
| 20260505204516 | 53 | 272 | 0.9 | 2.6 | 0.00 | 0.01 | 0.01 | 75 | 1005.8 |
| 20260505203515 | 52 | 226 | 1.7 | 6.1 | 0.00 | 0.01 | 0.01 | 76 | 1005.8 |
| 20260505202515 | 52 | 165 | 0.9 | 6.1 | 0.00 | 0.01 | 0.01 | 77 | 1006.0 |
| 20260505201525 | 51 | 184 | 0.9 | 3.5 | 0.00 | 0.01 | 0.01 | 77 | 1006.2 |
| 20260505200530 | 48 | 329 | 0.0 | 0.9 | 0.00 | 0.01 | 0.01 | 78 | 1006.3 |
| 20260505195516 | 48 | 23 | 0.0 | 0.9 | 0.00 | 0.01 | 0.01 | 76 | 1006.3 |
| 20260505194526 | 48 | 74 | 0.9 | 3.5 | 0.00 | 0.01 | 0.01 | 76 | 1006.4 |
| 20260505193517 | 47 | 27 | 0.0 | 1.7 | 0.00 | 0.01 | 0.01 | 76 | 1006.6 |
| 20260505192532 | 47 | 342 | 0.9 | 2.6 | 0.00 | 0.01 | 0.01 | 77 | 1006.5 |
| 20260505191517 | 48 | 348 | 0.9 | 2.6 | 0.00 | 0.01 | 0.01 | 74 | 1006.4 |
| 20260505190520 | 48 | 343 | 0.0 | 1.7 | 0.00 | 0.01 | 0.01 | 72 | 1006.4 |
| 20260505185516 | 48 | 345 | 0.9 | 2.6 | 0.00 | 0.01 | 0.01 | 73 | 1006.2 |
| 20260505184516 | 48 | 353 | 0.9 | 2.6 | 0.00 | 0.01 | 0.01 | 73 | 1006.1 |
| 20260505183658 | 48 | 43 | 0.0 | 1.7 | 0.00 | 0.01 | 0.01 | 73 | 1006.1 |
| 20260505182550 | 48 | 360 | 0.0 | 1.7 | 0.01 | 0.01 | 0.01 | 76 | 1006.2 |
| 20260505181536 | 48 | 330 | 0.0 | 1.7 | 0.01 | 0.01 | 0.01 | 73 | 1006.0 |
| 20260505180531 | 49 | 333 | 0.0 | 1.7 | 0.01 | 0.01 | 0.01 | 72 | 1005.7 |
| 20260505175515 | 48 | 0.0 | 0.0 | 0.01 | 0.01 | 0.01 | 72 | 1006.0 | |
| 20260505174517 | 49 | 26 | 0.0 | 0.9 | 0.01 | 0.01 | 0.01 | 73 | 1005.5 |
| 20260505173533 | 48 | 69 | 0.0 | 2.6 | 0.01 | 0.01 | 0.01 | 73 | 1005.8 |
| 20260505172520 | 47 | 355 | 0.0 | 1.7 | 0.00 | 0.00 | 0.00 | 73 | 1005.8 |
| 20260505171515 | 46 | 334 | 0.0 | 1.7 | 0.00 | 0.00 | 0.00 | 76 | 1005.8 |
| 20260505170517 | 46 | 36 | 0.0 | 1.7 | 0.00 | 0.00 | 0.00 | 75 | 1005.7 |
| 20260505165516 | 46 | 334 | 0.0 | 0.9 | 0.00 | 0.00 | 0.00 | 74 | 1005.6 |
| 20260505164544 | 46 | 332 | 0.0 | 0.9 | 0.00 | 0.00 | 0.00 | 74 | 1005.8 |
| 20260505163516 | 46 | 14 | 0.0 | 1.7 | 0.00 | 0.00 | 0.00 | 73 | 1005.8 |
| 20260505162515 | 46 | 348 | 0.0 | 2.6 | 0.00 | 0.00 | 0.00 | 71 | 1005.9 |
| 20260505161517 | 47 | 347 | 0.9 | 2.6 | 0.00 | 0.00 | 0.00 | 69 | 1006.1 |
| 20260505160517 | 47 | 333 | 0.0 | 1.7 | 0.00 | 0.00 | 0.00 | 69 | 1006.2 |
| 20260505152517 | 48 | 356 | 0.0 | 0.9 | 0.00 | 0.00 | 0.00 | 65 | 1005.3 |
| 20260505151516 | 48 | 94 | 0.9 | 5.2 | 0.00 | 0.00 | 0.00 | 65 | 1005.1 |
| 20260505150516 | 48 | 15 | 0.9 | 2.6 | 0.00 | 0.00 | 0.00 | 61 | 1005.3 |
| 20260505140523 | 47 | 349 | 0.9 | 3.5 | 0.00 | 0.00 | 0.00 | 68 | 1004.1 |
| 20260505124540 | 47 | 6 | 1.7 | 5.2 | 0.00 | 0.00 | 0.00 | 69 | 1003.5 |
| 20260505123525 | 47 | 344 | 0.9 | 5.2 | 0.00 | 0.00 | 0.00 | 71 | 1003.4 |
| 20260505122522 | 47 | 357 | 1.7 | 7.8 | 0.00 | 0.00 | 0.00 | 71 | 1003.0 |
| 20260505121555 | 47 | 355 | 1.7 | 7.8 | 0.00 | 0.00 | 0.00 | 72 | 1003.0 |
| 20260505120517 | 47 | 18 | 0.9 | 2.6 | 0.00 | 0.00 | 0.00 | 72 | 1002.7 |
| 20260505115536 | 47 | 347 | 0.9 | 5.2 | 0.00 | 0.00 | 0.00 | 72 | 1002.7 |
| 20260505114516 | 47 | 351 | 1.7 | 7.8 | 0.00 | 0.00 | 0.00 | 72 | 1002.4 |
| 20260505113522 | 47 | 347 | 1.7 | 6.1 | 0.00 | 0.00 | 0.00 | 72 | 1002.2 |
| 20260505112517 | 46 | 352 | 0.9 | 3.5 | 0.00 | 0.00 | 0.00 | 73 | 1002.0 |
| 20260505111516 | 46 | 355 | 2.6 | 7.8 | 0.00 | 0.00 | 0.00 | 73 | 1002.1 |
| 20260505110515 | 47 | 349 | 1.7 | 8.7 | 0.00 | 0.00 | 0.00 | 72 | 1001.8 |
| 20260505101515 | 47 | 19 | 0.9 | 7.0 | 0.00 | 0.00 | 0.00 | 79 | 1000.5 |
| 20260505100537 | 47 | 357 | 1.7 | 6.1 | 0.00 | 0.00 | 0.00 | 80 | 1000.6 |
| 20260505095516 | 46 | 1 | 3.5 | 8.7 | 0.00 | 0.00 | 0.00 | 82 | 1000.4 |
| 20260505094539 | 50 | 355 | 2.6 | 6.1 | 0.00 | 0.00 | 0.00 | 79 | 1000.0 |
| 20260505093518 | 59 | 0.0 | 0.0 | 0.00 | 0.00 | 0.00 | 74 | 999.3 | |
| 20260505092516 | 60 | 255 | 0.0 | 0.9 | 0.00 | 0.00 | 0.00 | 73 | 998.9 |